| time (UTC) | temp F | wind direction | speed knots | gust knots | rain 1hr in | rain 24hr in | rain mn in | humidity % | barometer mb |
| 20260507081545 | 61 | 48 | 6.1 | 14.8 | 0.00 | 0.03 | 0.00 | 100 | 1010.8 |
| 20260507080043 | 61 | 19 | 5.2 | 13.0 | 0.00 | 0.03 | 0.00 | 100 | 1010.7 |
| 20260507074545 | 62 | 355 | 5.2 | 11.3 | 0.00 | 0.03 | 0.00 | 100 | 1010.2 |
| 20260507073041 | 66 | 28 | 2.6 | 7.8 | 0.00 | 0.03 | 0.00 | 100 | 1009.6 |
| 20260507071538 | 66 | 26 | 1.7 | 4.3 | 0.00 | 0.03 | 0.00 | 100 | 1009.1 |
| 20260507070053 | 67 | 331 | 2.6 | 4.3 | 0.00 | 0.03 | 0.00 | 100 | 1008.7 |
| 20260507064546 | 68 | 49 | 0.0 | 0.9 | 0.00 | 0.03 | 0.00 | 100 | 1008.9 |
| 20260507063039 | 69 | 0 | 0.0 | 0.9 | 0.00 | 0.03 | 0.00 | 100 | 1008.9 |
| 20260507061540 | 69 | 50 | 0.0 | 5.2 | 0.00 | 0.03 | 0.00 | 100 | 1008.8 |
| 20260507054538 | 69 | 227 | 1.7 | 4.3 | 0.00 | 0.03 | 0.00 | 100 | 1009.4 |
| 20260507053051 | 70 | 207 | 1.7 | 7.0 | 0.00 | 0.03 | 0.00 | 100 | 1009.5 |
| 20260507051542 | 70 | 243 | 1.7 | 4.3 | 0.00 | 0.03 | 0.00 | 100 | 1009.6 |
| 20260507050042 | 70 | 222 | 0.9 | 7.0 | 0.00 | 0.03 | 0.00 | 100 | 1009.7 |
| 20260507044539 | 70 | 246 | 2.6 | 7.8 | 0.00 | 0.03 | 0.00 | 100 | 1009.8 |
| 20260507043038 | 70 | 219 | 1.7 | 6.1 | 0.00 | 0.03 | 0.00 | 100 | 1009.9 |
| 20260507041539 | 69 | 226 | 2.6 | 6.1 | 0.00 | 0.03 | 0.00 | 100 | 1009.9 |
| 20260507040043 | 69 | 271 | 0.9 | 7.0 | 0.00 | 0.03 | 0.00 | 100 | 1009.7 |
| 20260507034552 | 69 | 145 | 0.9 | 4.3 | 0.00 | 0.03 | 0.03 | 100 | 1009.6 |
| 20260507033043 | 69 | 240 | 0.9 | 6.1 | 0.00 | 0.03 | 0.03 | 100 | 1009.6 |
| 20260507031538 | 69 | 219 | 1.7 | 5.2 | 0.00 | 0.03 | 0.03 | 100 | 1009.5 |
| 20260507030040 | 68 | 217 | 0.9 | 3.5 | 0.00 | 0.03 | 0.03 | 100 | 1009.5 |
| 20260507024554 | 68 | 222 | 0.0 | 3.5 | 0.00 | 0.03 | 0.03 | 100 | 1009.6 |
| 20260507023040 | 68 | 229 | 0.9 | 2.6 | 0.00 | 0.03 | 0.03 | 100 | 1009.9 |
| 20260507021546 | 68 | 0 | 0.9 | 2.6 | 0.00 | 0.03 | 0.03 | 100 | 1010.0 |
| 20260507020039 | 68 | 229 | 0.9 | 3.5 | 0.00 | 0.03 | 0.03 | 100 | 1010.0 |
| 20260507014545 | 68 | 159 | 0.9 | 2.6 | 0.00 | 0.03 | 0.03 | 100 | 1009.9 |
| 20260507013038 | 68 | 213 | 0.0 | 1.7 | 0.00 | 0.03 | 0.03 | 100 | 1010.1 |
| 20260507011544 | 68 | 221 | 0.0 | 1.7 | 0.00 | 0.03 | 0.03 | 100 | 1010.3 |
| 20260507010049 | 68 | 222 | 0.9 | 1.7 | 0.00 | 0.03 | 0.03 | 100 | 1010.2 |
| 20260507004538 | 69 | 231 | 0.0 | 1.7 | 0.00 | 0.03 | 0.03 | 100 | 1010.2 |
| 20260507003040 | 69 | 213 | 0.9 | 1.7 | 0.00 | 0.03 | 0.03 | 100 | 1010.0 |
| 20260507001546 | 70 | 190 | 0.9 | 0.9 | 0.00 | 0.03 | 0.03 | 100 | 1010.1 |
| 20260507000043 | 70 | 226 | 0.9 | 2.6 | 0.00 | 0.03 | 0.03 | 100 | 1009.9 |
| 20260506234542 | 71 | 229 | 0.9 | 2.6 | 0.00 | 0.03 | 0.03 | 100 | 1010.0 |
| 20260506233041 | 72 | 149 | 0.9 | 2.6 | 0.00 | 0.03 | 0.03 | 100 | 1010.0 |
| 20260506231539 | 72 | 173 | 0.9 | 3.5 | 0.00 | 0.03 | 0.03 | 100 | 1009.9 |
| 20260506230044 | 72 | 205 | 0.9 | 4.3 | 0.00 | 0.03 | 0.03 | 100 | 1010.0 |
| 20260506224544 | 73 | 213 | 1.7 | 7.8 | 0.00 | 0.03 | 0.03 | 100 | 1009.7 |
| 20260506223043 | 73 | 260 | 2.6 | 9.6 | 0.00 | 0.03 | 0.03 | 100 | 1009.9 |
| 20260506221547 | 73 | 211 | 3.5 | 11.3 | 0.00 | 0.03 | 0.03 | 100 | 1010.0 |
| 20260506220050 | 73 | 232 | 1.7 | 3.5 | 0.00 | 0.03 | 0.03 | 100 | 1010.1 |
| 20260506214539 | 73 | 221 | 1.7 | 4.3 | 0.00 | 0.03 | 0.03 | 100 | 1010.0 |
| 20260506213043 | 72 | 188 | 0.0 | 2.6 | 0.00 | 0.03 | 0.03 | 100 | 1009.8 |
| 20260506211551 | 72 | 222 | 0.0 | 1.7 | 0.00 | 0.03 | 0.03 | 100 | 1009.9 |
| 20260506210043 | 71 | 244 | 0.0 | 1.7 | 0.00 | 0.03 | 0.03 | 100 | 1009.8 |
| 20260506204541 | 72 | 248 | 0.0 | 0.9 | 0.00 | 0.03 | 0.03 | 100 | 1009.7 |
| 20260506203041 | 72 | 255 | 0.0 | 2.6 | 0.00 | 0.03 | 0.03 | 100 | 1009.5 |
| 20260506201540 | 71 | 256 | 0.9 | 4.3 | 0.00 | 0.03 | 0.03 | 100 | 1009.8 |
| 20260506200038 | 70 | 211 | 1.7 | 6.1 | 0.00 | 0.03 | 0.03 | 100 | 1009.8 |
| 20260506194539 | 70 | 190 | 1.7 | 9.6 | 0.00 | 0.03 | 0.03 | 100 | 1009.6 |
| 20260506193039 | 70 | 225 | 2.6 | 11.3 | 0.00 | 0.03 | 0.03 | 100 | 1010.0 |
| 20260506191539 | 70 | 219 | 1.7 | 6.1 | 0.00 | 0.03 | 0.03 | 100 | 1010.2 |
| 20260506190038 | 69 | 254 | 0.9 | 7.0 | 0.00 | 0.03 | 0.03 | 100 | 1010.7 |
| 20260506184546 | 69 | 215 | 1.7 | 7.0 | 0.00 | 0.03 | 0.03 | 100 | 1010.7 |
| 20260506183043 | 68 | 209 | 2.6 | 7.0 | 0.00 | 0.03 | 0.03 | 100 | 1011.1 |
| 20260506181539 | 68 | 217 | 1.7 | 5.2 | 0.00 | 0.03 | 0.03 | 100 | 1011.3 |
| 20260506180048 | 68 | 212 | 2.6 | 6.1 | 0.00 | 0.03 | 0.03 | 100 | 1011.3 |
| 20260506174555 | 68 | 218 | 2.6 | 7.8 | 0.00 | 0.03 | 0.03 | 100 | 1011.6 |
| 20260506173046 | 68 | 198 | 2.6 | 7.8 | 0.01 | 0.03 | 0.03 | 100 | 1011.4 |
| 20260506171540 | 67 | 218 | 4.3 | 7.8 | 0.01 | 0.03 | 0.03 | 100 | 1011.6 |
| 20260506170045 | 66 | 206 | 2.6 | 7.8 | 0.02 | 0.03 | 0.03 | 100 | 1011.9 |
| 20260506164539 | 65 | 182 | 1.7 | 6.1 | 0.03 | 0.03 | 0.03 | 100 | 1012.0 |
| 20260506163044 | 65 | 211 | 2.6 | 4.3 | 0.02 | 0.02 | 0.02 | 100 | 1012.5 |
| 20260506161547 | 65 | 215 | 1.7 | 5.2 | 0.02 | 0.02 | 0.02 | 100 | 1012.5 |
| 20260506160043 | 66 | 173 | 1.7 | 4.3 | 0.01 | 0.01 | 0.01 | 100 | 1013.1 |
| 20260506154541 | 67 | 227 | 1.7 | 11.3 | 0.00 | 0.00 | 0.00 | 100 | 1013.2 |
| 20260506153046 | 69 | 224 | 3.5 | 8.7 | 0.00 | 0.00 | 0.00 | 100 | 1013.3 |
| 20260506151546 | 69 | 223 | 2.6 | 12.2 | 0.00 | 0.00 | 0.00 | 100 | 1013.4 |
| 20260506150048 | 69 | 216 | 2.6 | 7.0 | 0.00 | 0.00 | 0.00 | 100 | 1013.1 |
| 20260506144559 | 69 | 210 | 2.6 | 7.0 | 0.00 | 0.00 | 0.00 | 100 | 1013.0 |
| 20260506143049 | 69 | 215 | 3.5 | 6.1 | 0.00 | 0.00 | 0.00 | 100 | 1012.9 |
| 20260506141540 | 68 | 234 | 2.6 | 9.6 | 0.00 | 0.00 | 0.00 | 100 | 1012.9 |
| 20260506134546 | 69 | 225 | 3.5 | 9.6 | 0.00 | 0.00 | 0.00 | 100 | 1013.0 |
| 20260506133043 | 68 | 186 | 2.6 | 11.3 | 0.00 | 0.00 | 0.00 | 100 | 1012.9 |
| 20260506131544 | 68 | 214 | 3.5 | 9.6 | 0.00 | 0.00 | 0.00 | 100 | 1013.2 |
| 20260506130059 | 68 | 210 | 1.7 | 7.0 | 0.00 | 0.00 | 0.00 | 100 | 1013.1 |
| 20260506124538 | 67 | 232 | 4.3 | 12.2 | 0.00 | 0.00 | 0.00 | 100 | 1013.1 |
| 20260506123048 | 67 | 222 | 2.6 | 7.8 | 0.00 | 0.00 | 0.00 | 100 | 1013.3 |
| 20260506121551 | 67 | 183 | 3.5 | 8.7 | 0.00 | 0.00 | 0.00 | 100 | 1013.4 |
| 20260506120039 | 67 | 192 | 1.7 | 6.1 | 0.00 | 0.00 | 0.00 | 100 | 1013.4 |
| 20260506114538 | 66 | 225 | 2.6 | 8.7 | 0.00 | 0.00 | 0.00 | 100 | 1013.3 |
| 20260506113042 | 65 | 221 | 1.7 | 8.7 | 0.00 | 0.00 | 0.00 | 100 | 1013.1 |
| 20260506111543 | 65 | 223 | 2.6 | 7.8 | 0.00 | 0.00 | 0.00 | 100 | 1013.0 |
| 20260506110044 | 64 | 215 | 1.7 | 6.1 | 0.00 | 0.00 | 0.00 | 100 | 1013.1 |
| 20260506104543 | 65 | 216 | 1.7 | 5.2 | 0.00 | 0.00 | 0.00 | 100 | 1013.2 |
| 20260506103041 | 64 | 213 | 2.6 | 7.0 | 0.00 | 0.00 | 0.00 | 100 | 1013.0 |
| 20260506101544 | 64 | 217 | 2.6 | 6.1 | 0.00 | 0.00 | 0.00 | 100 | 1012.9 |
| 20260506100055 | 64 | 227 | 2.6 | 7.8 | 0.00 | 0.00 | 0.00 | 100 | 1012.9 |
| 20260506094545 | 64 | 163 | 2.6 | 6.1 | 0.00 | 0.00 | 0.00 | 100 | 1012.9 |
| 20260506093039 | 64 | 210 | 2.6 | 8.7 | 0.00 | 0.00 | 0.00 | 100 | 1013.1 |
| 20260506091540 | 64 | 219 | 2.6 | 6.1 | 0.00 | 0.00 | 0.00 | 100 | 1013.2 |
| 20260506090044 | 64 | 224 | 2.6 | 10.4 | 0.00 | 0.00 | 0.00 | 100 | 1013.3 |
| 20260506084540 | 64 | 167 | 2.6 | 6.1 | 0.00 | 0.00 | 0.00 | 100 | 1013.2 |
| 20260506083048 | 64 | 215 | 3.5 | 7.8 | 0.00 | 0.00 | 0.00 | 100 | 1013.2 |